| time (UTC) | temp F | wind direction | speed knots | gust knots | rain 1hr in | rain 24hr in | rain mn in | humidity % | barometer mb |
| 20260507131004 | 60 | 128 | 2.6 | 10.4 | 0.00 | 0.00 | 0.00 | 52 | 1016.3 |
| 20260507130004 | 60 | 100 | 0.9 | 6.1 | 0.00 | 0.00 | 0.00 | 52 | 1016.3 |
| 20260507125504 | 61 | 113 | 0.0 | 6.1 | 0.00 | 0.00 | 0.00 | 51 | 1016.3 |
| 20260507125005 | 61 | 116 | 0.0 | 1.7 | 0.00 | 0.00 | 0.00 | 52 | 1016.3 |
| 20260507124504 | 60 | 102 | 0.0 | 1.7 | 0.00 | 0.00 | 0.00 | 53 | 1016.0 |
| 20260507123504 | 60 | 244 | 0.9 | 4.3 | 0.00 | 0.00 | 0.00 | 50 | 1015.9 |
| 20260507123004 | 60 | 263 | 1.7 | 6.1 | 0.00 | 0.00 | 0.00 | 50 | 1016.1 |
| 20260507122503 | 60 | 136 | 1.7 | 6.1 | 0.00 | 0.00 | 0.00 | 50 | 1016.0 |
| 20260507122004 | 61 | 265 | 1.7 | 4.3 | 0.00 | 0.00 | 0.00 | 48 | 1015.9 |
| 20260507121504 | 61 | 300 | 0.9 | 2.6 | 0.00 | 0.00 | 0.00 | 49 | 1015.9 |
| 20260507121004 | 60 | 255 | 0.0 | 1.7 | 0.00 | 0.00 | 0.00 | 50 | 1015.9 |
| 20260507120504 | 60 | 173 | 0.9 | 6.1 | 0.00 | 0.00 | 0.00 | 50 | 1016.2 |
| 20260507120006 | 60 | 96 | 0.9 | 6.1 | 0.00 | 0.00 | 0.00 | 51 | 1016.4 |
| 20260507115503 | 60 | 101 | 0.0 | 0.0 | 0.00 | 0.00 | 0.00 | 51 | 1015.9 |
| 20260507115004 | 60 | 180 | 1.7 | 2.6 | 0.00 | 0.00 | 0.00 | 49 | 1016.0 |
| 20260507114505 | 60 | 255 | 1.7 | 4.3 | 0.00 | 0.00 | 0.00 | 48 | 1016.3 |
| 20260507114004 | 61 | 61 | 0.9 | 6.1 | 0.00 | 0.00 | 0.00 | 50 | 1016.5 |
| 20260507113004 | 60 | 165 | 0.0 | 1.7 | 0.00 | 0.00 | 0.00 | 52 | 1016.6 |
| 20260507111506 | 60 | 214 | 0.9 | 2.6 | 0.00 | 0.00 | 0.00 | 57 | 1016.6 |
| 20260507110504 | 60 | 106 | 0.9 | 4.3 | 0.00 | 0.00 | 0.00 | 55 | 1016.3 |
| 20260507110004 | 59 | 117 | 0.9 | 4.3 | 0.00 | 0.00 | 0.00 | 54 | 1016.6 |
| 20260507105504 | 59 | 262 | 0.0 | 0.0 | 0.00 | 0.00 | 0.00 | 56 | 1016.3 |
| 20260507105004 | 59 | 73 | 0.0 | 0.0 | 0.00 | 0.00 | 0.00 | 56 | 1016.3 |
| 20260507104504 | 59 | 256 | 0.9 | 2.6 | 0.00 | 0.00 | 0.00 | 56 | 1016.3 |
| 20260507104004 | 59 | 313 | 1.7 | 2.6 | 0.00 | 0.00 | 0.00 | 54 | 1016.6 |
| 20260507103504 | 59 | 145 | 0.0 | 1.7 | 0.00 | 0.00 | 0.00 | 60 | 1016.3 |
| 20260507102505 | 58 | 308 | 0.9 | 6.1 | 0.00 | 0.00 | 0.00 | 56 | 1016.6 |
| 20260507101504 | 61 | 301 | 1.7 | 4.3 | 0.00 | 0.00 | 0.00 | 58 | 1016.6 |
| 20260507100503 | 58 | 89 | 0.9 | 7.8 | 0.00 | 0.00 | 0.00 | 61 | 1016.9 |
| 20260507095504 | 61 | 237 | 0.0 | 2.6 | 0.00 | 0.00 | 0.00 | 59 | 1016.9 |
| 20260507095004 | 61 | 267 | 1.7 | 2.6 | 0.00 | 0.00 | 0.00 | 57 | 1016.9 |
| 20260507094504 | 59 | 65 | 0.0 | 7.0 | 0.00 | 0.00 | 0.00 | 61 | 1016.6 |
| 20260507094005 | 59 | 58 | 4.3 | 7.0 | 0.00 | 0.00 | 0.00 | 62 | 1016.9 |
| 20260507093504 | 57 | 61 | 0.9 | 1.7 | 0.00 | 0.00 | 0.00 | 63 | 1017.3 |
| 20260507093004 | 60 | 89 | 0.9 | 1.7 | 0.00 | 0.00 | 0.00 | 59 | 1016.9 |
| 20260507092505 | 60 | 88 | 0.9 | 1.7 | 0.00 | 0.00 | 0.00 | 63 | 1017.3 |
| 20260507092004 | 59 | 50 | 0.0 | 1.7 | 0.00 | 0.00 | 0.00 | 64 | 1016.9 |
| 20260507091503 | 60 | 98 | 0.0 | 0.0 | 0.00 | 0.00 | 0.00 | 63 | 1016.9 |
| 20260507090503 | 59 | 224 | 0.0 | 0.0 | 0.00 | 0.00 | 0.00 | 64 | 1017.3 |
| 20260507090006 | 59 | 224 | 0.0 | 0.0 | 0.00 | 0.00 | 0.00 | 66 | 1017.3 |
| 20260507085504 | 59 | 193 | 0.0 | 0.0 | 0.00 | 0.00 | 0.00 | 66 | 1017.3 |
| 20260507085004 | 58 | 70 | 0.0 | 0.0 | 0.00 | 0.00 | 0.00 | 67 | 1017.3 |
| 20260507084505 | 58 | 84 | 0.0 | 0.0 | 0.00 | 0.00 | 0.00 | 68 | 1017.3 |
| 20260507084004 | 56 | 83 | 0.0 | 1.7 | 0.00 | 0.00 | 0.00 | 70 | 1016.6 |
| 20260507083505 | 56 | 208 | 0.0 | 1.7 | 0.00 | 0.00 | 0.00 | 74 | 1016.9 |
| 20260507083004 | 54 | 110 | 1.7 | 2.6 | 0.00 | 0.00 | 0.00 | 76 | 1016.6 |
| 20260507082504 | 53 | 58 | 1.7 | 6.1 | 0.00 | 0.00 | 0.00 | 77 | 1016.6 |
| 20260507082004 | 53 | 83 | 4.3 | 6.1 | 0.00 | 0.00 | 0.00 | 77 | 1017.3 |
| 20260507081503 | 53 | 54 | 4.3 | 6.1 | 0.00 | 0.00 | 0.00 | 77 | 1016.9 |
| 20260507081005 | 53 | 122 | 0.9 | 2.6 | 0.00 | 0.00 | 0.00 | 78 | 1016.3 |
| 20260507080004 | 53 | 83 | 1.7 | 6.1 | 0.00 | 0.00 | 0.00 | 79 | 1017.3 |
| 20260507075504 | 52 | 92 | 4.3 | 7.8 | 0.00 | 0.00 | 0.00 | 79 | 1016.9 |
| 20260507074504 | 52 | 102 | 1.7 | 7.8 | 0.00 | 0.00 | 0.00 | 80 | 1017.3 |
| 20260507073505 | 51 | 98 | 2.6 | 6.1 | 0.00 | 0.00 | 0.00 | 82 | 1016.9 |
| 20260507073004 | 50 | 87 | 4.3 | 10.4 | 0.00 | 0.00 | 0.00 | 82 | 1016.6 |
| 20260507072505 | 50 | 61 | 7.0 | 10.4 | 0.00 | 0.00 | 0.00 | 82 | 1017.3 |
| 20260507072004 | 49 | 82 | 0.0 | 7.0 | 0.00 | 0.00 | 0.00 | 84 | 1016.6 |
| 20260507071504 | 51 | 109 | 4.3 | 7.0 | 0.00 | 0.00 | 0.00 | 81 | 1016.6 |
| 20260507071004 | 51 | 102 | 1.7 | 7.8 | 0.00 | 0.00 | 0.00 | 82 | 1016.9 |
| 20260507070504 | 49 | 90 | 2.6 | 7.8 | 0.00 | 0.00 | 0.00 | 84 | 1016.9 |
| 20260507070008 | 49 | 97 | 4.3 | 6.1 | 0.00 | 0.00 | 0.00 | 83 | 1016.9 |
| 20260507065504 | 49 | 76 | 4.3 | 4.3 | 0.00 | 0.00 | 0.00 | 83 | 1016.6 |
| 20260507065004 | 49 | 133 | 0.9 | 4.3 | 0.00 | 0.00 | 0.00 | 84 | 1016.3 |
| 20260507064504 | 49 | 99 | 2.6 | 6.1 | 0.00 | 0.00 | 0.00 | 83 | 1016.3 |
| 20260507064004 | 49 | 106 | 4.3 | 7.8 | 0.00 | 0.00 | 0.00 | 84 | 1016.3 |
| 20260507063505 | 48 | 78 | 4.3 | 7.8 | 0.00 | 0.00 | 0.00 | 86 | 1017.3 |
| 20260507063005 | 47 | 96 | 2.6 | 6.1 | 0.00 | 0.00 | 0.00 | 86 | 1015.9 |
| 20260507062004 | 47 | 68 | 1.7 | 6.1 | 0.00 | 0.00 | 0.00 | 86 | 1017.3 |
| 20260507061504 | 47 | 95 | 0.0 | 4.3 | 0.00 | 0.00 | 0.00 | 86 | 1016.9 |
| 20260507061004 | 47 | 103 | 0.0 | 0.0 | 0.00 | 0.00 | 0.00 | 86 | 1016.3 |
| 20260507060505 | 46 | 116 | 0.0 | 0.0 | 0.00 | 0.00 | 0.00 | 87 | 1015.6 |
| 20260507060004 | 45 | 79 | 0.0 | 0.0 | 0.00 | 0.00 | 0.00 | 88 | 1015.6 |
| 20260507055504 | 44 | 108 | 0.0 | 0.0 | 0.00 | 0.00 | 0.00 | 90 | 1017.3 |
| 20260507055004 | 44 | 48 | 0.0 | 0.0 | 0.00 | 0.00 | 0.00 | 95 | 1016.9 |
| 20260507054504 | 41 | 48 | 0.0 | 0.0 | 0.00 | 0.00 | 0.00 | 94 | 1017.3 |
| 20260507054004 | 40 | 48 | 0.0 | 0.0 | 0.00 | 0.00 | 0.00 | 95 | 1015.9 |
| 20260507053503 | 39 | 48 | 0.0 | 0.0 | 0.00 | 0.00 | 0.00 | 95 | 1015.6 |
| 20260507053005 | 39 | 48 | 0.0 | 0.0 | 0.00 | 0.00 | 0.00 | 95 | 1015.6 |
| 20260507052505 | 39 | 48 | 0.0 | 0.0 | 0.00 | 0.00 | 0.00 | 95 | 1015.6 |
| 20260507052004 | 39 | 48 | 0.0 | 0.0 | 0.00 | 0.00 | 0.00 | 95 | 1017.3 |
| 20260507051504 | 38 | 48 | 0.0 | 0.0 | 0.00 | 0.00 | 0.00 | 95 | 1017.3 |
| 20260507051004 | 38 | 48 | 0.0 | 0.0 | 0.00 | 0.00 | 0.00 | 95 | 1016.9 |
| 20260507050504 | 38 | 48 | 0.0 | 0.0 | 0.00 | 0.00 | 0.00 | 95 | 1016.9 |
| 20260507050004 | 38 | 48 | 0.0 | 0.0 | 0.00 | 0.00 | 0.00 | 94 | 1015.6 |
| 20260507045503 | 38 | 48 | 0.0 | 0.0 | 0.00 | 0.00 | 0.00 | 94 | 1015.6 |
| 20260507044504 | 38 | 48 | 0.0 | 0.0 | 0.00 | 0.00 | 0.00 | 94 | 1015.6 |
| 20260507043504 | 38 | 48 | 0.0 | 0.0 | 0.00 | 0.00 | 0.00 | 94 | 1015.9 |
| 20260507043005 | 38 | 48 | 0.0 | 0.0 | 0.00 | 0.00 | 0.00 | 94 | 1015.6 |
| 20260507042504 | 38 | 48 | 0.0 | 0.0 | 0.00 | 0.00 | 0.00 | 94 | 1015.6 |
| 20260507042004 | 38 | 48 | 0.0 | 0.0 | 0.00 | 0.00 | 0.00 | 94 | 1015.6 |
| 20260507041505 | 38 | 48 | 0.0 | 0.0 | 0.00 | 0.00 | 0.00 | 94 | 1015.6 |
| 20260507041005 | 39 | 48 | 0.0 | 0.0 | 0.00 | 0.00 | 0.00 | 94 | 1015.6 |
| 20260507040504 | 39 | 52 | 0.0 | 0.0 | 0.00 | 0.00 | 0.00 | 94 | 1016.4 |
| 20260507035004 | 39 | 57 | 0.0 | 0.0 | 0.00 | 0.00 | 0.00 | 94 | 1015.4 |
| 20260507034504 | 39 | 57 | 0.0 | 0.0 | 0.00 | 0.00 | 0.00 | 94 | 1016.0 |
| 20260507034004 | 39 | 57 | 0.0 | 0.0 | 0.00 | 0.00 | 0.00 | 94 | 1016.5 |
| 20260507033504 | 39 | 57 | 0.0 | 0.0 | 0.00 | 0.00 | 0.00 | 94 | 1015.3 |
| 20260507033005 | 39 | 57 | 0.0 | 0.0 | 0.00 | 0.00 | 0.00 | 94 | 1015.6 |
| 20260507032504 | 39 | 57 | 0.0 | 0.0 | 0.00 | 0.00 | 0.00 | 94 | 1015.8 |
| 20260507032004 | 39 | 57 | 0.0 | 0.0 | 0.00 | 0.00 | 0.00 | 94 | 1016.8 |
| 20260507031504 | 39 | 57 | 0.0 | 0.0 | 0.00 | 0.00 | 0.00 | 94 | 1015.3 |
| 20260507031004 | 39 | 57 | 0.0 | 0.0 | 0.00 | 0.00 | 0.00 | 94 | 1015.6 |
| 20260507030505 | 39 | 57 | 0.0 | 0.0 | 0.00 | 0.00 | 0.00 | 94 | 1015.6 |
| 20260507025504 | 39 | 57 | 0.0 | 0.0 | 0.00 | 0.00 | 0.00 | 94 | 1016.9 |
| 20260507025003 | 39 | 57 | 0.0 | 0.0 | 0.00 | 0.00 | 0.00 | 94 | 1016.6 |
| 20260507024504 | 38 | 57 | 0.0 | 0.0 | 0.00 | 0.00 | 0.00 | 94 | 1015.2 |
| 20260507024004 | 38 | 57 | 0.0 | 0.0 | 0.00 | 0.00 | 0.00 | 94 | 1016.9 |
| 20260507023503 | 38 | 57 | 0.0 | 0.0 | 0.00 | 0.00 | 0.00 | 94 | 1015.2 |
| 20260507023004 | 38 | 57 | 0.0 | 0.0 | 0.00 | 0.00 | 0.00 | 94 | 1015.2 |
| 20260507021504 | 38 | 57 | 0.0 | 0.0 | 0.00 | 0.00 | 0.00 | 93 | 1016.6 |
| 20260507021004 | 39 | 57 | 0.0 | 0.0 | 0.00 | 0.00 | 0.00 | 93 | 1015.6 |
| 20260507020504 | 39 | 57 | 0.0 | 0.0 | 0.00 | 0.00 | 0.00 | 93 | 1015.2 |
| 20260507015504 | 39 | 57 | 0.0 | 0.0 | 0.00 | 0.00 | 0.00 | 93 | 1015.2 |
| 20260507015004 | 39 | 57 | 0.0 | 0.0 | 0.00 | 0.00 | 0.00 | 93 | 1016.6 |
| 20260507014503 | 39 | 57 | 0.0 | 0.0 | 0.00 | 0.00 | 0.00 | 93 | 1016.6 |
| 20260507013503 | 40 | 81 | 0.0 | 0.0 | 0.00 | 0.00 | 0.00 | 93 | 1016.6 |
| 20260507013005 | 40 | 81 | 0.0 | 0.0 | 0.00 | 0.00 | 0.00 | 93 | 1015.2 |
| 20260507011004 | 40 | 81 | 0.0 | 0.0 | 0.00 | 0.00 | 0.00 | 92 | 1015.2 |
| 20260507010503 | 40 | 81 | 0.0 | 0.0 | 0.00 | 0.00 | 0.00 | 91 | 1016.6 |
| 20260507005504 | 41 | 81 | 0.0 | 0.0 | 0.00 | 0.00 | 0.00 | 91 | 1015.2 |
| 20260507004505 | 41 | 81 | 0.0 | 0.0 | 0.00 | 0.00 | 0.00 | 91 | 1016.6 |
| 20260507004004 | 41 | 72 | 0.0 | 0.0 | 0.00 | 0.00 | 0.00 | 90 | 1016.6 |
| 20260507003503 | 41 | 65 | 0.0 | 0.0 | 0.00 | 0.00 | 0.00 | 90 | 1016.6 |
| 20260507003004 | 42 | 58 | 0.0 | 1.7 | 0.00 | 0.00 | 0.00 | 90 | 1015.6 |
| 20260507002503 | 42 | 37 | 0.0 | 1.7 | 0.00 | 0.00 | 0.00 | 89 | 1016.6 |
| 20260507002003 | 42 | 4 | 0.0 | 0.0 | 0.00 | 0.00 | 0.00 | 89 | 1015.6 |
| 20260507001504 | 42 | 4 | 0.0 | 0.0 | 0.00 | 0.00 | 0.00 | 89 | 1016.6 |
| 20260507001005 | 42 | 4 | 0.0 | 0.0 | 0.00 | 0.00 | 0.00 | 88 | 1015.6 |
| 20260507000005 | 42 | 4 | 0.0 | 0.0 | 0.00 | 0.00 | 0.00 | 88 | 1015.6 |
| 20260506235505 | 42 | 10 | 0.0 | 0.0 | 0.00 | 0.00 | 0.00 | 88 | 1016.6 |
| 20260506235003 | 41 | 14 | 0.0 | 0.0 | 0.00 | 0.00 | 0.00 | 87 | 1015.6 |
| 20260506234504 | 41 | 14 | 0.0 | 0.0 | 0.00 | 0.00 | 0.00 | 87 | 1015.2 |
| 20260506234004 | 41 | 14 | 0.0 | 0.0 | 0.00 | 0.00 | 0.00 | 86 | 1015.6 |
| 20260506232505 | 43 | 14 | 0.0 | 0.0 | 0.00 | 0.00 | 0.00 | 85 | 1016.6 |
| 20260506232005 | 43 | 14 | 0.0 | 0.0 | 0.00 | 0.00 | 0.00 | 85 | 1016.6 |
| 20260506231504 | 43 | 14 | 0.0 | 0.0 | 0.00 | 0.00 | 0.00 | 85 | 1016.6 |
| 20260506231004 | 43 | 18 | 0.0 | 0.0 | 0.00 | 0.00 | 0.00 | 84 | 1016.6 |
| 20260506230503 | 43 | 18 | 0.0 | 0.0 | 0.00 | 0.00 | 0.00 | 84 | 1015.2 |
| 20260506230004 | 43 | 18 | 0.0 | 0.0 | 0.00 | 0.00 | 0.00 | 84 | 1015.2 |
| 20260506225505 | 43 | 26 | 0.0 | 0.0 | 0.00 | 0.00 | 0.00 | 85 | 1015.2 |
| 20260506225003 | 42 | 29 | 0.0 | 0.0 | 0.00 | 0.00 | 0.00 | 84 | 1015.2 |
| 20260506224504 | 43 | 30 | 0.0 | 0.0 | 0.00 | 0.00 | 0.00 | 84 | 1016.6 |
| 20260506224005 | 43 | 30 | 0.0 | 0.0 | 0.00 | 0.00 | 0.00 | 84 | 1015.6 |
| 20260506223004 | 43 | 30 | 0.0 | 0.0 | 0.00 | 0.00 | 0.00 | 83 | 1016.6 |
| 20260506222504 | 43 | 30 | 0.0 | 0.0 | 0.00 | 0.00 | 0.00 | 82 | 1016.6 |
| 20260506222004 | 44 | 30 | 0.0 | 0.0 | 0.00 | 0.00 | 0.00 | 81 | 1016.3 |
| 20260506221504 | 44 | 30 | 0.0 | 0.0 | 0.00 | 0.00 | 0.00 | 80 | 1016.3 |
| 20260506221005 | 44 | 29 | 0.0 | 0.0 | 0.00 | 0.00 | 0.00 | 80 | 1016.3 |
| 20260506220503 | 45 | 48 | 0.0 | 1.7 | 0.00 | 0.00 | 0.00 | 79 | 1014.9 |
| 20260506220006 | 45 | 40 | 1.7 | 1.7 | 0.00 | 0.00 | 0.00 | 79 | 1016.3 |
| 20260506215504 | 45 | 37 | 0.0 | 1.7 | 0.00 | 0.00 | 0.00 | 79 | 1015.9 |
| 20260506215006 | 44 | 45 | 0.0 | 0.0 | 0.00 | 0.00 | 0.00 | 80 | 1016.3 |
| 20260506214503 | 44 | 45 | 0.0 | 0.0 | 0.00 | 0.00 | 0.00 | 80 | 1014.9 |
| 20260506214004 | 44 | 46 | 0.0 | 0.0 | 0.00 | 0.00 | 0.00 | 80 | 1014.9 |
| 20260506213504 | 45 | 53 | 0.0 | 0.0 | 0.00 | 0.00 | 0.00 | 80 | 1015.9 |
| 20260506213005 | 45 | 53 | 0.0 | 0.0 | 0.00 | 0.00 | 0.00 | 80 | 1014.9 |
| 20260506212504 | 45 | 78 | 0.0 | 0.0 | 0.00 | 0.00 | 0.00 | 80 | 1014.9 |
| 20260506212005 | 45 | 85 | 0.0 | 0.0 | 0.00 | 0.00 | 0.00 | 80 | 1016.3 |
| 20260506211504 | 45 | 85 | 0.0 | 0.0 | 0.00 | 0.00 | 0.00 | 80 | 1014.9 |
| 20260506211004 | 45 | 109 | 0.0 | 0.0 | 0.00 | 0.00 | 0.00 | 79 | 1015.9 |
| 20260506210503 | 46 | 37 | 0.0 | 0.0 | 0.00 | 0.00 | 0.00 | 78 | 1016.3 |
| 20260506210005 | 46 | 37 | 0.0 | 0.0 | 0.00 | 0.00 | 0.00 | 76 | 1016.3 |
| 20260506205505 | 46 | 37 | 0.0 | 0.0 | 0.00 | 0.00 | 0.00 | 76 | 1014.9 |
| 20260506205003 | 47 | 37 | 0.0 | 0.0 | 0.00 | 0.00 | 0.00 | 74 | 1014.9 |
| 20260506204503 | 48 | 37 | 0.0 | 0.0 | 0.00 | 0.00 | 0.00 | 73 | 1014.6 |
| 20260506204004 | 48 | 37 | 0.0 | 0.0 | 0.00 | 0.00 | 0.00 | 73 | 1014.9 |
| 20260506203504 | 48 | 37 | 0.0 | 2.6 | 0.00 | 0.00 | 0.00 | 72 | 1014.6 |
| 20260506203004 | 48 | 37 | 1.7 | 2.6 | 0.00 | 0.00 | 0.00 | 72 | 1014.6 |
| 20260506202503 | 48 | 42 | 0.0 | 0.0 | 0.00 | 0.00 | 0.00 | 72 | 1014.6 |
| 20260506202005 | 49 | 43 | 0.0 | 0.0 | 0.00 | 0.00 | 0.00 | 72 | 1014.6 |
| 20260506201504 | 49 | 66 | 0.0 | 0.0 | 0.00 | 0.00 | 0.00 | 71 | 1015.6 |
| 20260506201004 | 49 | 44 | 0.0 | 0.0 | 0.00 | 0.00 | 0.00 | 71 | 1014.6 |
| 20260506200504 | 49 | 44 | 0.0 | 0.0 | 0.00 | 0.00 | 0.00 | 70 | 1014.6 |
| 20260506200005 | 50 | 44 | 0.0 | 0.0 | 0.00 | 0.00 | 0.00 | 69 | 1014.6 |
| 20260506195503 | 50 | 42 | 1.7 | 4.3 | 0.00 | 0.00 | 0.00 | 68 | 1015.5 |
| 20260506195004 | 50 | 35 | 0.9 | 4.3 | 0.00 | 0.00 | 0.00 | 67 | 1015.3 |
| 20260506194503 | 51 | 20 | 2.6 | 4.3 | 0.00 | 0.00 | 0.00 | 67 | 1015.2 |
| 20260506193504 | 51 | 35 | 0.9 | 4.3 | 0.00 | 0.00 | 0.00 | 66 | 1014.5 |
| 20260506193004 | 51 | 24 | 0.0 | 0.0 | 0.00 | 0.00 | 0.00 | 66 | 1014.2 |
| 20260506192504 | 51 | 29 | 0.9 | 1.7 | 0.00 | 0.00 | 0.00 | 65 | 1014.0 |
| 20260506192005 | 52 | 23 | 0.0 | 1.7 | 0.00 | 0.00 | 0.00 | 64 | 1014.1 |
| 20260506191004 | 52 | 39 | 1.7 | 2.6 | 0.00 | 0.00 | 0.00 | 63 | 1014.2 |
| 20260506185504 | 53 | 64 | 2.6 | 6.1 | 0.00 | 0.00 | 0.00 | 62 | 1014.2 |
| 20260506185004 | 53 | 36 | 2.6 | 6.1 | 0.00 | 0.00 | 0.00 | 61 | 1014.7 |
| 20260506184505 | 53 | 28 | 3.5 | 4.3 | 0.00 | 0.00 | 0.00 | 60 | 1013.9 |
| 20260506184004 | 53 | 32 | 4.3 | 12.2 | 0.00 | 0.00 | 0.00 | 59 | 1014.0 |
| 20260506183504 | 54 | 3 | 4.3 | 12.2 | 0.00 | 0.00 | 0.00 | 58 | 1014.6 |
| 20260506183004 | 54 | 47 | 6.1 | 10.4 | 0.00 | 0.00 | 0.00 | 58 | 1014.9 |
| 20260506182504 | 54 | 24 | 4.3 | 10.4 | 0.00 | 0.00 | 0.00 | 58 | 1014.6 |
| 20260506182004 | 55 | 22 | 3.5 | 7.8 | 0.00 | 0.00 | 0.00 | 58 | 1014.9 |
| 20260506181505 | 55 | 40 | 5.2 | 10.4 | 0.00 | 0.00 | 0.00 | 58 | 1014.6 |
| 20260506180005 | 54 | 33 | 4.3 | 6.1 | 0.00 | 0.00 | 0.00 | 58 | 1013.9 |
| 20260506175504 | 55 | 59 | 2.6 | 10.4 | 0.00 | 0.00 | 0.00 | 58 | 1013.5 |
| 20260506175004 | 55 | 22 | 3.5 | 10.4 | 0.00 | 0.00 | 0.00 | 57 | 1014.6 |
| 20260506174504 | 55 | 10 | 3.5 | 10.4 | 0.00 | 0.00 | 0.00 | 57 | 1014.2 |
| 20260506174004 | 55 | 5 | 1.7 | 6.1 | 0.00 | 0.00 | 0.00 | 56 | 1014.2 |
| 20260506173504 | 55 | 34 | 4.3 | 7.8 | 0.00 | 0.00 | 0.00 | 55 | 1014.2 |
| 20260506173004 | 55 | 30 | 5.2 | 7.8 | 0.00 | 0.00 | 0.00 | 55 | 1013.9 |
| 20260506172004 | 55 | 38 | 2.6 | 10.4 | 0.00 | 0.00 | 0.00 | 55 | 1013.9 |
| 20260506171004 | 56 | 57 | 6.1 | 8.7 | 0.00 | 0.00 | 0.00 | 53 | 1013.2 |
| 20260506170504 | 56 | 60 | 5.2 | 10.4 | 0.00 | 0.00 | 0.00 | 55 | 1013.2 |
| 20260506165503 | 56 | 45 | 1.7 | 2.6 | 0.00 | 0.00 | 0.00 | 56 | 1013.5 |
| 20260506165003 | 56 | 27 | 2.6 | 7.0 | 0.00 | 0.00 | 0.00 | 56 | 1013.5 |
| 20260506164504 | 56 | 25 | 5.2 | 7.0 | 0.00 | 0.00 | 0.00 | 55 | 1013.5 |
| 20260506164004 | 56 | 28 | 1.7 | 2.6 | 0.00 | 0.00 | 0.00 | 54 | 1013.2 |
| 20260506163505 | 56 | 30 | 1.7 | 4.3 | 0.00 | 0.00 | 0.00 | 54 | 1013.2 |
| 20260506163005 | 56 | 27 | 2.6 | 7.0 | 0.00 | 0.00 | 0.00 | 54 | 1013.2 |
| 20260506162504 | 56 | 49 | 6.1 | 7.8 | 0.00 | 0.00 | 0.00 | 53 | 1013.2 |
| 20260506161504 | 56 | 34 | 4.3 | 12.2 | 0.00 | 0.00 | 0.00 | 53 | 1013.2 |
| 20260506160504 | 56 | 18 | 10.4 | 13.9 | 0.00 | 0.00 | 0.00 | 52 | 1014.2 |
| 20260506160004 | 56 | 61 | 2.6 | 15.6 | 0.00 | 0.00 | 0.00 | 52 | 1013.9 |
| 20260506155504 | 57 | 34 | 10.4 | 15.6 | 0.00 | 0.00 | 0.00 | 50 | 1013.9 |
| 20260506155004 | 57 | 21 | 7.0 | 12.2 | 0.00 | 0.00 | 0.00 | 50 | 1013.9 |
| 20260506154505 | 57 | 349 | 8.7 | 13.9 | 0.00 | 0.00 | 0.00 | 49 | 1013.9 |
| 20260506154004 | 56 | 9 | 7.0 | 13.9 | 0.00 | 0.00 | 0.00 | 49 | 1014.2 |
| 20260506153503 | 57 | 341 | 5.2 | 12.2 | 0.00 | 0.00 | 0.00 | 50 | 1014.2 |
| 20260506153004 | 57 | 58 | 4.3 | 6.1 | 0.00 | 0.00 | 0.00 | 51 | 1013.5 |
| 20260506152504 | 57 | 50 | 1.7 | 13.9 | 0.00 | 0.00 | 0.00 | 49 | 1013.5 |
| 20260506152005 | 57 | 54 | 10.4 | 13.9 | 0.00 | 0.00 | 0.00 | 50 | 1013.9 |
| 20260506151504 | 57 | 34 | 7.0 | 11.3 | 0.00 | 0.00 | 0.00 | 50 | 1013.5 |
| 20260506151005 | 57 | 24 | 7.8 | 10.4 | 0.00 | 0.00 | 0.00 | 48 | 1013.9 |
| 20260506150504 | 58 | 37 | 4.3 | 6.1 | 0.00 | 0.00 | 0.00 | 48 | 1013.5 |
| 20260506145504 | 58 | 38 | 2.6 | 12.2 | 0.00 | 0.00 | 0.00 | 49 | 1013.9 |
| 20260506145004 | 57 | 49 | 7.0 | 12.2 | 0.00 | 0.00 | 0.00 | 50 | 1013.5 |
| 20260506144504 | 57 | 21 | 8.7 | 12.2 | 0.00 | 0.00 | 0.00 | 49 | 1014.2 |
| 20260506143505 | 57 | 332 | 5.2 | 13.9 | 0.00 | 0.00 | 0.00 | 48 | 1013.5 |
| 20260506143004 | 58 | 71 | 7.8 | 15.6 | 0.00 | 0.00 | 0.00 | 47 | 1014.2 |
| 20260506142504 | 57 | 26 | 7.8 | 15.6 | 0.00 | 0.00 | 0.00 | 48 | 1014.2 |
| 20260506142004 | 57 | 357 | 8.7 | 18.2 | 0.00 | 0.00 | 0.00 | 50 | 1014.2 |
| 20260506141504 | 57 | 2 | 2.6 | 18.2 | 0.00 | 0.00 | 0.00 | 51 | 1014.2 |
| 20260506141004 | 58 | 52 | 7.8 | 12.2 | 0.00 | 0.00 | 0.00 | 51 | 1014.2 |
| 20260506140505 | 57 | 11 | 6.1 | 10.4 | 0.00 | 0.00 | 0.00 | 52 | 1014.2 |
| 20260506140005 | 57 | 25 | 7.8 | 10.4 | 0.00 | 0.00 | 0.00 | 51 | 1014.2 |
| 20260506135505 | 58 | 32 | 6.1 | 8.7 | 0.00 | 0.00 | 0.00 | 52 | 1013.9 |
| 20260506134504 | 57 | 306 | 4.3 | 15.6 | 0.00 | 0.00 | 0.00 | 51 | 1014.2 |
| 20260506134003 | 57 | 311 | 8.7 | 15.6 | 0.00 | 0.00 | 0.00 | 51 | 1014.2 |
| 20260506133505 | 58 | 297 | 7.8 | 13.9 | 0.00 | 0.00 | 0.00 | 51 | 1014.2 |
| 20260506132504 | 56 | 25 | 6.1 | 13.9 | 0.00 | 0.00 | 0.00 | 52 | 1014.6 |
| 20260506132005 | 57 | 48 | 5.2 | 13.9 | 0.00 | 0.00 | 0.00 | 51 | 1013.9 |
| 20260506131504 | 57 | 35 | 11.3 | 13.9 | 0.00 | 0.00 | 0.00 | 50 | 1014.6 |